User: anonymous   Login
Location: Caltech
(34.1382°N, 118.1253°W)
Time: 09:08:22
(UTC-07:00)
Language:

Lacrosse 5 - Orbit

View from above orbital plane
View from above orbital plane
View from above satellite
View from above satellite

Ground track
Ground track

The orbit data is extracted from the following two-line orbital elements,

1 28646U 05016A   17289.18213339 0.00000000  00000-0  00000-0 0    08
2 28646  57.0100  34.8519 0004000  44.9716 315.0284 14.51913132    09
Epoch (UTC): 16 October 2017 04:22:16
Eccentricity: 0.0004000
inclination: 57.0100°
perigee height: 716 km
apogee height: 722 km
right ascension of ascending node: 34.8519°
argument of perigee: 44.9716°
revolutions per day: 14.51913132
mean anomaly at epoch: 315.0284°
orbit number at epoch: 0

The dashed part of the orbit path shows where the satellite is in the earth's shadow,  

DLR